[[{"header":{"parameterUnit":"m.s-1","parameterCategory":1,"la1":30.2991,"la2":30.254,"lo1":-89.0895,"lo2":-89.0444,"dy":0.0017,"dx":0.0017,"nx":28,"ny":28,"refTime":"2023-08-12T03:00:00:Z","depth":0,"parameterNumber":2,"parameterNumberName":"U-component_of_WINDS"},"data":[0,0,0,0,0,0,0,0,0,0,0,0,0,0,0,0,0,0,0,0,0,0,0,0,0,0,0,0,0,0,0,0,0,0,0,0,0,0,0,0,0,0,0,0,0,0,0,0,0,0,0,0,0,0,0,0,0,0,1.5633,1.5634,0,1.5737,1.5739,1.574,1.576,1.576,1.5759,1.5758,1.587,1.5874,1.5877,0,0,0,0,0,0,0,0,0,0,0,0,0,1.5456,1.5459,1.5633,1.5634,1.5635,1.5737,1.5739,1.574,1.576,1.5759,1.5758,1.5758,1.5869,1.5873,1.5878,0,0,0,0,0,0,0,0,0,0,0,0,0,1.5544,1.546,1.5633,1.5658,1.5661,1.5737,1.5739,1.5741,1.5761,1.5759,1.5758,1.5757,1.5867,1.5873,1.5878,1.5938,0,0,1.5895,1.5898,0,0,0,0,0,0,0,0,1.5539,1.555,1.5653,1.5656,1.566,1.5734,1.5717,1.5807,1.5761,1.5723,1.5758,1.5756,1.5826,1.5835,1.5858,1.5943,1.5948,1.5896,1.5899,1.5902,1.5903,0,0,0,0,0,0,0,1.5533,1.5546,1.5674,1.5654,1.5659,1.5665,1.5677,1.5734,1.5781,1.5726,1.5728,1.574,1.5828,1.5852,1.586,1.595,1.5896,1.5901,1.5904,1.5907,1.6091,1.6093,0,0,0,0,0,0,1.5521,1.5541,1.5671,1.5678,1.5595,1.567,1.5682,1.5712,1.578,1.5789,1.5741,1.574,1.5843,1.5854,1.5864,1.594,1.5902,1.5907,1.591,1.609,1.6091,1.6093,0,0,0,0,0,0,1.5517,1.5533,1.5667,1.561,1.5627,1.5674,1.5707,1.5715,1.5739,1.5791,1.58,1.5757,1.5843,1.5857,1.592,1.5944,1.591,1.5915,1.6088,1.609,1.6092,1.609,0,0,0,0,0,0,1.5512,1.5531,1.5553,1.561,1.563,1.5719,1.5709,1.5718,1.5748,1.5748,1.5808,1.5817,1.5843,1.5911,1.5925,1.5951,1.5919,1.6086,1.6089,1.6092,1.6088,1.6092,1.6095,0,0,0,0,0,1.5506,1.5549,1.5554,1.557,1.5658,1.572,1.5732,1.5759,1.575,1.5773,1.5807,1.5815,1.5939,1.5917,1.5933,1.5961,1.6085,1.6088,1.6091,1.6086,1.6091,1.6095,0,0,0,0,0,0,1.5496,1.5557,1.5563,1.5626,1.5667,1.5723,1.5753,1.5763,1.5809,1.5808,1.5842,1.5855,1.5916,1.5945,1.592,1.6023,1.6011,1.6018,1.6002,1.6007,1.601,1.6002,1.5924,0,0,0,0,0,1.55,1.5544,1.5596,1.5646,1.5667,1.5706,1.5734,1.5752,1.5797,1.5815,1.5853,1.5898,1.5947,1.5978,1.6026,1.6092,1.6106,1.612,1.6123,1.6126,1.6131,1.6169,1.6176,1.6104,1.6104,1.6104,0,0,1.5512,1.555,1.5576,1.5645,1.5679,1.5725,1.5721,1.5769,1.5804,1.5823,1.5884,1.5914,1.5966,1.6031,1.6061,1.6057,1.6154,1.613,1.6132,1.6136,1.6174,1.618,1.6186,1.6107,1.6106,1.6106,0,0,1.5555,1.5588,1.5634,1.5668,1.5719,1.5745,1.5756,1.5811,1.5831,1.5893,1.5908,1.595,1.6034,1.6071,1.61,1.6158,1.6168,1.6173,1.6191,1.6228,1.6234,1.6239,1.626,1.6267,1.6178,1.6178,1.6178,0,1.5562,1.563,1.5657,1.5704,1.5735,1.5752,1.58,1.5832,1.5897,1.5919,1.5912,1.6018,1.6054,1.6128,1.6142,1.6165,1.618,1.6166,1.623,1.6236,1.6241,1.6262,1.627,1.6178,1.6178,1.6178,1.6178,0,1.5637,1.5684,1.5716,1.5776,1.581,1.5858,1.5893,1.5925,1.5939,1.5967,1.6031,1.6075,1.6132,1.6151,1.6166,1.6228,1.6223,1.6223,1.6212,1.6248,1.6268,1.6276,1.6179,1.6179,1.6179,1.6179,0,0,1.5677,1.5752,1.5763,1.5791,1.5849,1.5887,1.5936,1.599,1.6017,1.6062,1.6105,1.6175,1.6175,1.6209,1.6228,1.626,1.6304,1.6257,1.6259,1.6265,1.6376,1.6376,1.6384,1.6311,1.6312,1.6314,1.6372,0,1.5728,1.5814,1.584,1.5913,1.5957,1.5974,1.6017,1.6058,1.6085,1.6129,1.6159,1.6209,1.6205,1.6225,1.6258,1.6292,1.6327,1.6288,1.6353,1.6355,1.6339,1.6395,1.6395,1.6448,1.638,1.6381,1.6382,0,1.5799,1.5843,1.592,1.5972,1.5992,1.603,1.6083,1.6123,1.6171,1.6188,1.6225,1.6242,1.6296,1.6281,1.6356,1.6329,1.6357,1.6378,1.6381,1.6388,1.6371,1.6405,1.6465,1.6473,1.6395,1.6394,1.6393,0,1.5821,1.59,1.5956,1.598,1.6043,1.6069,1.6097,1.6143,1.6174,1.6221,1.6242,1.6294,1.6323,1.6364,1.6396,1.6382,1.6469,1.6456,1.6486,1.6485,1.6504,1.6502,1.657,1.6521,1.6521,1.6521,1.652,0,1.5876,1.5922,1.5967,1.6002,1.6055,1.6085,1.6138,1.6166,1.6207,1.6249,1.6268,1.6307,1.6346,1.6391,1.6416,1.6475,1.6488,1.6505,1.6511,1.6503,1.6501,1.6522,1.652,1.6523,1.6522,1.6522,1.6522,0,1.591,1.5942,1.6004,1.6058,1.6073,1.611,1.6157,1.6192,1.622,1.6273,1.6287,1.6331,1.6385,1.642,1.6489,1.6506,1.657,1.6575,1.6554,1.6557,1.6585,1.6582,1.6669,1.6682,1.6624,1.6624,1.6624,0,1.5943,1.5979,1.6036,1.6065,1.6092,1.6138,1.617,1.6201,1.6234,1.6291,1.6319,1.6374,1.6419,1.6505,1.6544,1.6597,1.6604,1.6631,1.6613,1.6604,1.6606,1.6603,1.6608,1.6634,1.6635,1.6635,1.6636,0,1.5998,1.6012,1.6056,1.6106,1.6143,1.6184,1.6226,1.6249,1.6287,1.6323,1.6378,1.6413,1.6483,1.6537,1.6594,1.6625,1.6637,1.6641,1.6651,1.6644,1.663,1.6638,1.6562,1.6639,1.6639,1.6638,1.6638,1.6638,1.6033,1.6066,1.6112,1.6161,1.6195,1.6233,1.6269,1.63,1.6346,1.6404,1.642,1.6477,1.6525,1.6602,1.6633,1.668,1.6677,1.6691,1.6695,1.6698,1.6698,1.6622,1.669,1.669,1.669,1.669,1.669,0,1.609,1.612,1.6164,1.6221,1.626,1.6266,1.6313,1.6346,1.6395,1.6437,1.6481,1.6544,1.6598,1.6641,1.6696,1.6724,1.6732,1.6738,1.6737,1.6744,1.6697,1.6684,1.6731,1.6731,1.6731,1.6731,1.6731,1.6731,1.6124,1.618,1.62,1.6274,1.6304,1.6359,1.6385,1.6421,1.6455,1.6524,1.6567,1.6594,1.6638,1.6696,1.6746,1.6757,1.6777,1.6782,1.6795,1.6751,1.6747,1.6742,1.673,1.6786,1.6786,1.6837,1.6838,1.6838]},{"header":{"parameterUnit":"m.s-1","parameterCategory":1,"la1":30.2991,"la2":30.254,"lo1":-89.0895,"lo2":-89.0444,"dy":0.0017,"dx":0.0017,"nx":28,"ny":28,"refTime":"2023-08-12T03:00:00:Z","depth":0,"parameterNumber":3,"parameterNumberName":"V-component_of_WINDS"},"data":[0,0,0,0,0,0,0,0,0,0,0,0,0,0,0,0,0,0,0,0,0,0,0,0,0,0,0,0,0,0,0,0,0,0,0,0,0,0,0,0,0,0,0,0,0,0,0,0,0,0,0,0,0,0,0,0,0,0,2.2947,2.2948,0,2.3014,2.3014,2.3015,2.3058,2.3058,2.3058,2.3059,2.3123,2.3125,2.3126,0,0,0,0,0,0,0,0,0,0,0,0,0,2.2853,2.2855,2.2947,2.2948,2.2949,2.3013,2.3014,2.3015,2.3058,2.3058,2.3058,2.3059,2.3123,2.3125,2.3126,0,0,0,0,0,0,0,0,0,0,0,0,0,2.2904,2.2855,2.2947,2.2978,2.2982,2.3013,2.3014,2.3015,2.3058,2.3058,2.3059,2.3059,2.3122,2.3124,2.3127,2.3132,0,0,2.3133,2.3134,0,0,0,0,0,0,0,0,2.2901,2.2908,2.2973,2.2976,2.298,2.3028,2.3005,2.3054,2.3058,2.3029,2.3059,2.3059,2.3091,2.3096,2.3107,2.3135,2.3138,2.3134,2.3135,2.3136,2.3137,0,0,0,0,0,0,0,2.2898,2.2905,2.2974,2.2974,2.2978,2.2987,2.2995,2.3015,2.3057,2.3031,2.3035,2.3042,2.3093,2.3105,2.3109,2.3139,2.3134,2.3136,2.3137,2.3138,2.3171,2.3171,0,0,0,0,0,0,2.289,2.2902,2.2971,2.2976,2.2941,2.2988,2.2997,2.3012,2.3057,2.3064,2.3041,2.3044,2.3101,2.3107,2.3112,2.3119,2.3136,2.3138,2.3139,2.3172,2.3171,2.3171,0,0,0,0,0,0,2.2888,2.2896,2.2969,2.294,2.295,2.299,2.3006,2.3013,2.3025,2.3064,2.3072,2.3046,2.3102,2.3108,2.3126,2.3122,2.3139,2.3141,2.3172,2.3171,2.3171,2.3135,0,0,0,0,0,0,2.2885,2.2895,2.2898,2.2939,2.2951,2.2984,2.3006,2.3014,2.3029,2.3033,2.3071,2.3078,2.3103,2.3123,2.3128,2.3125,2.3143,2.3173,2.3172,2.3171,2.3137,2.3133,2.313,0,0,0,0,0,2.2881,2.2886,2.2898,2.2907,2.2957,2.2983,2.299,2.3019,2.3029,2.3032,2.3057,2.3076,2.3121,2.3124,2.3131,2.3128,2.3173,2.3172,2.3171,2.3138,2.3134,2.313,0,0,0,0,0,0,2.2843,2.2892,2.2906,2.2925,2.2949,2.2991,2.2996,2.3014,2.3037,2.3039,2.3073,2.3082,2.3095,2.3114,2.3116,2.3134,2.3149,2.315,2.3122,2.3118,2.3115,2.311,2.3145,0,0,0,0,0,2.2837,2.2856,2.2897,2.2909,2.292,2.2955,2.2968,2.2989,2.3016,2.3026,2.3052,2.3077,2.3096,2.3108,2.3129,2.3139,2.3147,2.3141,2.3137,2.3135,2.3134,2.3139,2.3136,2.3167,2.3167,2.3167,0,0,2.2824,2.2853,2.2863,2.2902,2.2923,2.294,2.2964,2.2982,2.2994,2.3029,2.3047,2.3066,2.3096,2.3109,2.3116,2.3125,2.3127,2.3133,2.3131,2.3132,2.3137,2.3134,2.3131,2.3167,2.3167,2.3167,0,0,2.281,2.2834,2.2846,2.2866,2.2899,2.2922,2.2924,2.2962,2.2976,2.2995,2.302,2.3035,2.3068,2.3087,2.3101,2.309,2.3108,2.3096,2.3078,2.3082,2.308,2.3078,2.3072,2.3069,2.3095,2.3095,2.3095,0,2.279,2.2817,2.2849,2.2864,2.2879,2.2911,2.2922,2.294,2.2977,2.2986,2.2995,2.3036,2.3058,2.3075,2.3072,2.3083,2.3085,2.3092,2.3078,2.3076,2.3075,2.3069,2.3067,2.3094,2.3094,2.3094,2.3094,0,2.279,2.2808,2.2813,2.2848,2.2864,2.2877,2.2908,2.292,2.2938,2.2959,2.2976,2.3003,2.3029,2.3034,2.3053,2.3053,2.3057,2.3072,2.3087,2.3069,2.3064,2.3063,2.3091,2.3092,2.3092,2.3093,0,0,2.2755,2.2805,2.2806,2.2821,2.2858,2.2872,2.2885,2.2909,2.2918,2.2941,2.2952,2.2978,2.2991,2.3006,2.3027,2.303,2.3017,2.3044,2.3045,2.3036,2.3016,2.3004,2.3001,2.3029,2.3029,2.3029,2.3013,0,2.2745,2.2771,2.2798,2.2814,2.283,2.2858,2.2869,2.2891,2.2911,2.2926,2.2947,2.2964,2.2981,2.299,2.2995,2.3017,2.3013,2.3019,2.3037,2.3037,2.3028,2.3,2.2988,2.2972,2.3012,2.3012,2.3011,0,2.2738,2.2759,2.2776,2.2808,2.2816,2.2825,2.2848,2.2863,2.2888,2.2901,2.2918,2.2939,2.2951,2.2965,2.2982,2.2985,2.2994,2.3006,2.3006,2.3008,2.3022,2.2999,2.2968,2.2965,2.3009,2.3009,2.301,0,2.2708,2.2742,2.2755,2.2767,2.2806,2.2811,2.2827,2.2852,2.2864,2.2884,2.2892,2.2913,2.2924,2.2939,2.2964,2.2972,2.2977,2.2994,2.2987,2.2986,2.2986,2.2986,2.2954,2.2994,2.2994,2.2994,2.2994,0,2.2694,2.2703,2.2742,2.2751,2.276,2.279,2.2798,2.2817,2.2838,2.2849,2.2875,2.2885,2.2918,2.2931,2.295,2.2959,2.2965,2.2975,2.298,2.2972,2.297,2.2977,2.2978,2.2993,2.2993,2.2993,2.2994,0,2.2664,2.2691,2.2707,2.2741,2.275,2.2755,2.2783,2.2791,2.2811,2.2824,2.2829,2.286,2.2876,2.2902,2.2927,2.2939,2.2944,2.2954,2.2936,2.2939,2.293,2.2929,2.2901,2.2897,2.294,2.294,2.2939,0,2.2653,2.266,2.2694,2.2703,2.2718,2.2733,2.2744,2.2773,2.2784,2.2811,2.2815,2.2833,2.2848,2.2872,2.2896,2.2913,2.2922,2.2911,2.2925,2.2916,2.292,2.2918,2.2918,2.2907,2.2907,2.2906,2.2906,0,2.2629,2.2641,2.2658,2.2678,2.2691,2.2708,2.2727,2.2732,2.2765,2.2775,2.2792,2.2804,2.2827,2.2843,2.2864,2.2879,2.2897,2.2901,2.29,2.2892,2.288,2.2884,2.2925,2.2902,2.2902,2.2902,2.2903,2.2903,2.2608,2.2614,2.2638,2.2654,2.2671,2.2686,2.2694,2.2714,2.2729,2.275,2.2765,2.278,2.2801,2.283,2.2844,2.2854,2.2863,2.2862,2.2862,2.2861,2.2856,2.2879,2.2859,2.2859,2.2859,2.2859,2.2859,0,2.2584,2.26,2.2615,2.2639,2.2651,2.2666,2.2687,2.2695,2.2708,2.2726,2.2741,2.2758,2.2773,2.2797,2.2813,2.2817,2.2825,2.282,2.282,2.2822,2.2849,2.2847,2.2813,2.2813,2.2813,2.2813,2.2813,2.2813,2.2573,2.2584,2.2598,2.2616,2.2632,2.2646,2.2656,2.2669,2.2684,2.2702,2.2714,2.2729,2.2749,2.2767,2.2781,2.2787,2.2791,2.2783,2.2792,2.2816,2.2821,2.2825,2.2823,2.2784,2.2784,2.2764,2.2764,2.2764]}]]